This is the latest recevied weather packets stored in our database for station/object BV5AB-33. If no packets are shown the sender has not sent any weather packets the latest 10 day(s).
| Time | Temp. | Humidity | Pressure | Rain* | Wind** | Luminosity | Snow |
|---|---|---|---|---|---|---|---|
| 1777895097 | 25° C | 72% | 984.7 hPa | 0.51 mm | - | - | - |
| 1777894497 | 25° C | 71% | 984.6 hPa | 0.51 mm | - | - | - |
| 1777893897 | 25.56° C | 71% | 984.5 hPa | 1.02 mm | - | - | - |
| 1777892997 | 25° C | 71% | 984.6 hPa | 1.27 mm | - | - | - |
| 1777892397 | 25° C | 70% | 984.3 hPa | 1.52 mm | - | - | - |
| 1777891198 | 25.56° C | 70% | 984.3 hPa | 1.78 mm | - | - | - |
| 1777890297 | 25.56° C | 68% | 984.1 hPa | 2.29 mm | - | - | - |
| 1777889397 | 26.11° C | 67% | 984 hPa | 2.29 mm | - | - | - |
| 1777887297 | 26.67° C | 64% | 983.7 hPa | 33.78 mm | - | - | - |
| 1777886398 | 26.67° C | 61% | 983.6 hPa | 32.51 mm | - | - | - |
| 1777886097 | 27.22° C | 60% | 983.4 hPa | 32.51 mm | - | - | - |
| 1777885797 | 27.22° C | 59% | 983.3 hPa | 32.51 mm | - | - | - |
| 1777885497 | 27.22° C | 57% | 983.3 hPa | 2.29 mm | - | - | - |
| 1777885198 | 27.22° C | 57% | 983.1 hPa | 0 mm | - | - | - |
| 1777884897 | 27.78° C | 53% | 983 hPa | 0 mm | - | - | - |
| 1777884598 | 27.78° C | 53% | 983.1 hPa | 0 mm | - | - | - |
| 1777879197 | 28.89° C | 50% | 982.6 hPa | 0 mm | - | - | - |
| 1777878297 | 28.89° C | 50% | 982.6 hPa | 0 mm | - | - | - |
| 1777877998 | 28.89° C | 50% | 982.5 hPa | 0 mm | - | - | - |
| 1777872898 | 30.56° C | 50% | 982.9 hPa | 0 mm | - | - | - |
| 1777872297 | 31.11° C | 49% | 983 hPa | 0 mm | - | - | - |
| 1777871699 | 31.67° C | 46% | 983 hPa | 0 mm | - | - | - |
| 1777862998 | 28.89° C | 52% | 983.9 hPa | 0 mm | - | - | - |
| 1777862398 | 28.33° C | 53% | 983.9 hPa | 0 mm | - | - | - |
| 1777861198 | 27.78° C | 54% | 983.8 hPa | 0 mm | - | - | - |
* Rain latest hour (hover to see other rain measurements)
** Current wind speed in m/s (hover to see current wind gust speed)